This is the latest recevied weather packets stored in our database for station/object YO8PIC-5. If no packets are shown the sender has not sent any weather packets the latest 10 day(s).
| Time | Temp. | Humidity | Pressure | Rain* | Wind** | Luminosity | Snow |
|---|---|---|---|---|---|---|---|
| 1777532213 | 11.11° C | 32% | 1025.3 hPa | - | - | - | - |
| 1777531312 | 9.44° C | 35% | 1025.2 hPa | - | - | - | - |
| 1777530415 | 8.33° C | 37% | 1025.4 hPa | - | - | - | - |
| 1777529515 | 6.11° C | 42% | 1025.3 hPa | - | - | - | - |
| 1777528615 | 5° C | 45% | 1025.2 hPa | - | - | - | - |
| 1777527715 | 3.89° C | 48% | 1025.2 hPa | - | - | - | - |
| 1777526815 | 3.33° C | 48% | 1025.1 hPa | - | - | - | - |
| 1777525915 | 2.78° C | 51% | 1025 hPa | - | - | - | - |
| 1777525014 | 2.78° C | 53% | 1025 hPa | - | - | - | - |
| 1777524114 | 1.67° C | 59% | 1025 hPa | - | - | - | - |
| 1777523214 | 1.11° C | 63% | 1024.9 hPa | - | - | - | - |
| 1777522314 | 1.11° C | 63% | 1024.9 hPa | - | - | - | - |
| 1777521413 | 0° C | 65% | 1024.7 hPa | - | - | - | - |
| 1777520513 | -1.11° C | 66% | 1024.7 hPa | - | - | - | - |
| 1777519613 | -2.22° C | 72% | 1024.5 hPa | - | - | - | - |
| 1777518713 | -1.67° C | 66% | 1024.3 hPa | - | - | - | - |
| 1777517813 | -2.22° C | 69% | 1024.3 hPa | - | - | - | - |
| 1777516912 | -1.11° C | 64% | 1024.1 hPa | - | - | - | - |
| 1777516012 | -1.11° C | 63% | 1023.8 hPa | - | - | - | - |
| 1777515112 | -1.11° C | 65% | 1023.7 hPa | - | - | - | - |
| 1777514212 | 0.56° C | 57% | 1023.7 hPa | - | - | - | - |
| 1777513312 | 0.56° C | 57% | 1023.6 hPa | - | - | - | - |
| 1777512411 | 0° C | 60% | 1023.5 hPa | - | - | - | - |
| 1777511511 | 0.56° C | 56% | 1023.4 hPa | - | - | - | - |
| 1777510611 | 0° C | 63% | 1023.5 hPa | - | - | - | - |
* Rain since midnight (hover to see other rain measurements)
** Current wind speed in m/s (hover to see current wind gust speed)